Location: Montreal
(45.5000°N, 73.5830°W)
Time: 23:13:40
(UTC-05:00)

ISS - Visible Passes

Search period start: 22 January 2018 00:00
Search period end: 01 February 2018 00:00
Orbit: 402 x 407 km, 51.6° (Epoch: 23 January)

Date Brightness Start Highest point End Pass type
(mag) Time Alt. Az. Time Alt. Az. Time Alt. Az.
24 Jan -1.1 19:13:34 10° SSW 19:14:12 14° SSW 19:14:12 14° SSW visible
25 Jan -2.3 18:21:51 10° SSW 18:24:24 23° SE 18:24:24 23° SE visible
26 Jan -1.6 17:30:47 10° SSE 17:32:22 13° SE 17:33:58 10° ESE visible
26 Jan -2.4 19:05:08 10° WSW 19:07:12 36° SW 19:07:12 36° SW visible
27 Jan -3.5 18:12:57 10° SW 18:16:07 48° SE 18:17:14 32° E visible
27 Jan -0.4 19:49:35 10° W 19:49:54 12° W 19:49:54 12° W visible
28 Jan -3.1 18:57:00 10° W 18:59:51 49° NW 18:59:51 49° NW visible
29 Jan -3.8 18:04:33 10° WSW 18:07:49 82° NNW 18:09:44 23° ENE visible
29 Jan -0.7 19:41:42 10° WNW 19:42:24 14° WNW 19:42:24 14° WNW visible
30 Jan -2.7 18:49:03 10° W 18:52:05 34° NNW 18:52:13 34° N visible
31 Jan -3.1 17:56:26 10° W 17:59:36 46° NNW 18:02:01 16° NE visible
31 Jan -1.0 19:33:44 10° WNW 19:34:40 16° NW 19:34:40 16° NW visible
